GFSNGP_sfc_dewp_093.txt.gz
Dewpoint
22 21 19 19 17 17 15 30 29 27 24 22 24 28 28 29 26 31 34 32 37 44 50 52 53 54 54 54 54 54 54 54 54 54 54 55 56 55 54 54 54 53 52 51
27 25 24 21 21 19 17 17 19 22 21 31 33 33 38 40 32 26 29 29 35 37 45 52 52 53 53 54 54 54 55 54 54 55 55 56 56 57 56 55 55 53 53 52
26 26 26 23 23 20 20 19 19 21 34 42 41 42 42 43 42 35 36 41 43 44 44 46 49 54 53 54 54 53 53 55 55 55 55 55 56 55 56 57 57 56 55 54
27 26 18 24 23 23 30 36 38 39 40 40 41 42 43 45 39 43 44 45 45 46 46 46 47 48 49 54 54 53 53 53 55 56 56 55 55 55 55 55 56 57 56 56
25 24 25 23 34 36 36 36 39 38 38 40 42 42 43 44 48 46 46 47 48 48 49 49 49 50 49 50 54 53 53 53 53 55 56 56 56 55 56 56 55 53 47 44
26 23 18 31 36 39 37 33 39 40 41 41 40 39 41 45 48 46 46 47 47 47 46 45 45 49 50 49 51 53 53 53 55 55 54 55 55 54 47 47 40 39 36 37
25 26 26 37 38 40 33 33 38 39 41 43 40 44 46 48 47 46 44 43 44 43 42 41 42 46 45 45 44 46 45 54 55 55 55 52 47 44 41 38 35 34 32 33
26 26 21 39 37 36 37 38 37 38 39 44 45 48 49 46 42 41 40 40 39 40 39 39 39 41 40 39 41 42 43 43 44 46 44 43 41 39 38 36 33 32 30 30
28 28 39 40 38 37 37 35 35 36 37 39 41 41 41 40 38 36 35 36 36 36 36 37 37 37 36 35 36 38 38 38 38 40 41 41 38 35 34 33 32 30 28 28
32 37 40 39 38 35 35 36 34 35 36 37 37 35 35 35 34 34 33 33 34 35 35 35 35 35 34 34 32 32 31 32 33 33 32 33 34 35 33 32 30 29 27 26
36 38 36 34 34 34 34 35 34 34 35 34 33 33 32 31 30 30 31 32 32 32 31 31 34 34 34 32 31 29 28 28 29 29 28 28 28 28 28 30 30 28 28 28
31 35 36 32 32 33 32 32 34 33 32 31 31 30 29 27 27 28 28 28 28 29 29 29 30 32 33 33 30 29 28 27 26 26 26 27 26 26 29 29 30 29 29 28
30 31 32 32 31 31 31 31 32 31 29 29 29 28 27 25 25 25 25 25 26 27 28 28 29 30 31 32 32 29 27 27 26 26 25 24 24 23 22 27 30 30 29 30
28 30 30 30 29 29 29 30 30 28 26 25 25 25 23 23 22 23 23 24 24 25 26 27 27 28 30 31 29 28 27 26 26 25 24 23 22 22 22 21 20 22 26 27
25 28 28 29 28 27 27 28 27 25 25 23 22 21 20 19 19 21 22 22 23 24 25 26 25 26 29 30 29 28 27 26 25 25 24 23 22 21 21 20 19 19 19 20
24 25 25 26 26 26 24 24 24 24 23 21 20 19 18 18 19 19 21 22 20 21 23 24 24 27 27 27 27 26 27 27 26 24 22 21 21 19 18 18 19 19 18 17
22 21 22 23 26 25 23 22 23 21 20 20 20 18 17 17 17 18 19 20 20 20 21 23 23 25 26 26 25 25 24 24 23 21 20 19 18 17 16 15 15 15 15 15
23 23 22 23 24 23 20 19 19 18 18 19 19 18 17 16 16 16 18 19 18 18 19 21 22 22 24 25 24 23 22 22 22 21 21 19 18 16 14 13 12 12 12 12
21 20 19 19 20 19 18 17 17 18 18 18 16 14 14 14 13 13 14 13 13 14 16 20 22 21 20 21 22 21 19 18 17 16 17 16 15 14 14 12 11 11 11 10
17 17 17 17 17 17 15 15 14 14 15 14 14 13 12 12 12 11 11 10 12 13 17 18 19 19 20 20 19 18 17 16 14 14 13 12 12 11 11 10 8 6 4 5
16 14 15 15 14 15 14 13 12 12 13 12 10 9 8 9 11 11 9 7 12 15 16 17 17 16 16 14 14 16 15 14 13 12 11 10 9 8 6 4 4 3 3 3
11 13 11 12 12 12 13 13 12 11 11 11 12 12 10 9 9 9 11 10 12 13 14 14 14 14 13 13 13 13 12 11 11 10 9 8 4 2 -0 1 2 -1 -1 1
14 13 12 10 11 11 11 12 13 11 10 9 9 8 7 8 9 6 4 10 9 10 10 12 12 12 12 12 10 9 8 8 7 6 5 3 1 -2 -1 -1 -5 -8 -10 -5
16 17 15 15 13 12 10 12 12 12 11 12 12 12 11 8 8 7 7 7 8 9 9 10 10 10 8 7 6 7 8 7 5 5 4 -1 0 -4 -7 -7 -7 -12 -14 -9
12 11 12 11 11 12 12 13 12 11 10 10 10 9 10 11 8 10 11 10 11 9 8 8 8 7 7 7 4 3 3 2 2 1 -3 -4 -7 -10 -13 -14 -16 -15 -8 -8
17 17 18 18 17 17 16 14 12 12 10 9 10 8 8 9 9 9 9 9 8 6 6 5 6 7 5 5 3 -0 -1 -1 -3 -2 -6 -9 -4 -12 -15 -14 -11 -10 -15 -18
18 16 15 15 15 16 16 14 12 10 9 6 5 6 7 7 7 8 6 5 4 4 2 -1 -1 0 0 -2 -2 -2 -5 -12 -11 -11 -13 -13 -13 -14 -16 -18 -18 -18 -18 -17

GFSNGP_sfc_dewp_096.txt.gz
Dewpoint
27 25 23 21 25 23 21 24 26 30 29 31 36 37 41 42 42 39 36 35 46 51 52 53 54 54 54 53 54 54 54 53 53 55 56 55 54 53 53 52 51 51 50 50
27 26 25 24 24 23 22 20 20 24 26 41 41 41 42 45 45 37 40 44 44 46 52 54 54 54 54 54 54 54 53 52 53 53 55 56 55 54 54 54 53 51 51 50
25 28 26 23 25 23 22 37 34 27 39 39 40 41 43 46 46 44 46 47 47 48 48 49 52 56 55 55 55 54 54 54 54 53 53 54 55 55 54 54 54 54 53 52
26 24 16 24 31 36 37 37 38 37 38 39 40 42 44 47 46 46 47 47 46 46 46 46 48 51 52 55 55 55 54 55 55 54 54 53 53 54 55 55 55 54 54 53
23 22 24 26 34 36 34 35 39 38 40 40 39 42 42 47 46 45 45 45 44 44 43 43 45 46 47 47 52 55 54 54 55 55 54 54 54 55 55 56 56 56 56 55
26 22 19 33 36 37 37 34 36 38 38 40 40 37 40 47 45 43 43 43 42 42 41 40 42 44 43 44 44 45 46 48 54 56 56 55 55 55 55 55 53 46 41 40
25 24 26 37 39 39 26 32 37 37 39 42 40 40 41 41 39 39 39 39 40 40 39 38 38 40 39 39 40 42 42 44 47 49 53 55 55 51 45 42 41 39 37 35
27 24 21 38 37 32 36 39 37 37 39 41 41 42 41 38 37 35 35 36 37 37 36 36 36 37 37 36 37 37 38 37 37 40 44 45 43 41 40 38 34 32 31 31
28 27 39 39 36 37 36 34 35 36 37 38 36 36 37 36 35 33 33 33 34 35 34 34 34 34 34 33 33 33 32 32 33 33 34 38 39 38 35 35 34 32 29 28
34 38 37 36 35 35 35 35 35 34 34 34 34 33 32 32 31 32 30 31 31 31 31 32 33 33 32 32 31 30 29 29 29 29 29 32 32 33 33 32 32 30 28 28
36 36 34 33 33 33 33 34 34 32 32 31 31 30 29 28 28 28 28 28 29 29 30 31 32 33 33 31 30 28 27 27 28 28 27 27 29 30 29 31 31 28 28 27
29 34 36 31 31 32 31 32 31 31 29 29 28 28 27 26 25 25 26 26 27 28 29 29 30 30 31 30 28 27 26 25 26 26 26 26 26 27 30 30 31 31 31 29
32 34 35 32 29 29 31 28 27 26 26 27 26 25 24 23 24 24 24 24 25 26 27 28 29 29 29 29 27 26 25 25 25 25 25 24 24 24 23 28 30 30 30 31
31 31 30 28 27 28 29 27 27 24 23 23 22 22 21 20 20 21 22 24 24 25 26 26 27 28 30 29 27 26 24 24 22 22 23 22 22 22 22 21 20 22 27 26
29 28 27 27 26 25 26 26 24 23 22 20 19 19 19 19 19 20 21 23 23 23 24 24 24 25 28 28 27 26 24 23 23 22 22 21 21 20 20 19 18 17 17 17
23 23 24 25 26 24 23 23 22 22 21 19 18 18 18 18 18 19 19 20 19 19 22 22 23 24 26 26 25 24 23 23 22 20 19 19 19 18 19 18 17 16 15 15
21 20 21 22 24 22 21 21 20 19 19 19 18 18 17 17 16 17 18 19 19 19 21 21 22 24 24 24 24 23 22 21 20 19 17 17 16 16 16 15 14 13 12 12
20 19 19 21 21 20 18 17 17 17 17 17 17 16 15 14 13 13 14 16 15 15 17 20 21 22 22 22 22 21 21 21 20 19 18 16 15 15 14 13 11 10 10 9
18 17 18 18 19 17 16 16 17 16 16 14 12 12 12 11 11 11 12 11 10 11 15 19 21 20 20 21 20 19 18 17 17 17 16 15 13 12 11 10 10 9 9 7
15 16 16 15 15 14 13 13 12 11 11 12 11 9 8 9 10 10 10 9 11 13 16 17 18 18 19 19 18 17 17 15 14 13 12 11 10 9 8 6 5 4 4 3
12 12 12 11 10 11 11 11 9 9 10 9 7 6 7 8 10 10 9 7 11 14 15 15 15 15 15 16 16 15 14 13 11 11 10 8 8 7 6 4 3 2 3 3
6 9 6 7 10 10 11 10 10 9 9 9 8 8 7 7 8 8 9 9 12 13 14 13 12 11 11 12 11 11 11 10 10 9 7 7 5 4 3 2 1 1 -1 -4
9 10 9 8 8 9 11 11 10 9 6 5 6 6 6 7 8 5 4 10 11 11 10 10 9 10 10 10 10 9 8 7 6 5 3 2 1 1 -1 -5 -6 -5 -8 -10
10 10 11 13 12 11 9 10 11 10 9 10 9 9 7 6 7 8 8 8 8 8 9 9 8 8 7 7 6 6 6 5 4 4 2 -0 -3 -4 -5 -7 -7 -9 -11 -10
10 8 9 9 9 8 9 10 10 10 10 10 10 11 10 10 8 10 10 8 9 7 7 7 8 8 7 6 4 4 3 3 1 0 -2 -5 -7 -9 -14 -13 -18 -16 -18 -18
15 15 14 14 13 14 13 11 9 9 7 7 7 6 7 9 9 9 8 6 6 4 4 2 3 3 4 1 -1 -2 -1 -1 -3 -5 -5 -8 -10 -14 -18 -18 -18 -19 -21 -23
16 16 15 15 15 15 15 13 11 9 8 6 5 6 6 7 7 6 3 1 -0 -2 -3 -5 -3 -1 -2 -4 -5 -6 -9 -11 -13 -14 -19 -19 -19 -22 -22 -22 -23 -24 -25 -24

GFSNGP_sfc_dewp_102.txt.gz
Dewpoint
31 33 30 27 28 27 25 23 22 23 25 36 39 41 43 46 43 46 46 46 44 46 47 53 53 53 54 55 55 54 53 52 52 51 52 51 51 50 50 50 50 51 51 51
28 30 27 25 29 29 28 28 27 25 26 39 40 43 44 45 45 45 45 44 44 44 45 46 48 54 54 54 55 55 53 54 53 53 52 51 51 51 50 51 51 50 50 51
22 28 25 22 23 27 34 36 35 28 36 39 39 43 43 42 43 43 43 43 42 42 42 43 45 46 52 55 55 55 55 55 54 54 53 52 52 52 52 51 51 51 51 50
25 24 13 30 36 35 35 36 37 36 36 38 40 41 40 40 41 41 41 40 40 39 38 39 41 43 47 53 55 55 54 55 55 54 54 55 53 52 52 52 52 51 51 51
23 22 21 31 34 35 34 35 37 37 39 38 39 41 39 39 39 38 37 38 38 37 37 36 38 40 41 43 46 46 47 49 50 53 54 54 54 54 54 53 53 53 52 51
25 21 15 26 37 38 38 31 37 36 39 38 36 34 37 39 37 36 35 36 36 35 35 34 36 36 36 37 37 39 40 41 43 44 48 51 53 54 55 54 53 53 52 50
24 23 24 32 37 38 25 26 36 38 40 40 38 39 39 37 35 34 34 34 34 34 34 33 33 34 33 33 33 34 35 35 35 36 39 41 44 51 53 54 48 41 34 34
25 23 19 35 36 28 32 36 36 36 36 36 36 36 35 33 33 32 32 32 33 32 32 32 32 32 30 30 31 31 31 31 31 33 34 35 36 37 37 38 34 33 32 31
27 25 34 34 34 35 35 33 33 32 33 34 33 32 32 30 30 31 31 31 32 31 31 31 30 30 29 28 29 29 29 29 30 30 31 32 33 33 34 33 32 31 29 28
33 35 34 35 34 33 32 30 30 30 30 31 30 29 28 28 27 29 30 29 28 29 30 29 29 28 28 28 27 28 28 28 29 29 29 30 30 31 31 30 29 29 28 27
32 34 34 33 35 34 30 30 29 28 27 27 28 27 26 25 25 26 27 28 28 28 28 28 28 27 26 26 27 26 27 27 28 28 28 27 29 30 29 30 30 28 28 28
27 32 33 32 34 28 27 26 25 25 25 23 24 23 24 23 24 24 25 25 25 26 27 28 27 26 25 24 25 25 25 25 26 26 26 25 24 25 30 30 30 30 29 28
29 33 33 34 33 31 25 24 22 21 21 21 21 22 22 22 22 23 23 23 24 25 26 26 26 26 26 24 23 21 22 24 24 23 22 23 23 22 20 24 28 28 28 28
31 34 30 29 28 29 25 23 23 20 19 19 19 19 20 19 20 20 21 23 24 23 24 25 25 25 26 25 23 21 20 21 21 22 21 19 18 18 16 14 13 16 23 25
27 29 31 28 25 23 23 22 21 20 19 18 18 18 18 17 17 18 19 20 20 20 21 22 23 23 25 24 22 21 20 19 19 19 19 18 18 17 15 14 13 13 14 14
26 22 25 23 21 20 20 19 19 19 18 18 17 17 17 16 16 16 16 16 16 16 18 19 19 22 24 23 21 20 20 19 18 18 17 17 16 14 12 11 10 9 8 10
20 18 19 20 20 18 17 18 18 18 17 16 16 16 15 14 13 13 14 16 16 16 18 18 18 21 21 22 21 20 19 18 18 17 16 15 14 13 11 9 8 7 7 7
17 18 19 18 18 18 16 16 15 14 13 13 13 11 10 11 11 11 12 14 14 13 14 17 18 19 19 19 19 19 18 17 16 15 15 13 13 12 10 8 7 6 5 4
16 16 16 16 16 15 14 13 13 12 12 11 8 7 7 7 8 9 10 9 9 8 11 14 19 16 17 19 18 17 16 15 14 13 12 11 9 8 6 4 4 4 3 2
13 13 13 12 12 12 10 10 10 8 9 8 7 6 6 6 7 7 9 7 9 11 13 14 15 15 15 15 16 14 14 12 11 10 9 8 6 5 4 3 2 0 -1 -1
9 8 9 8 7 7 6 4 4 4 5 5 5 4 4 6 7 7 7 6 9 12 12 12 12 12 12 12 12 11 10 8 7 6 5 4 3 3 2 2 1 -1 -2 -3
3 5 3 4 6 5 5 3 4 3 4 4 4 5 5 5 6 7 8 8 10 10 9 9 9 8 8 9 9 8 7 7 6 5 4 2 1 0 -1 -1 -2 -2 -3 -5
3 5 5 3 4 5 6 4 2 2 1 1 1 2 5 7 7 5 4 8 9 8 7 7 6 6 5 5 5 3 2 2 1 0 0 -0 -2 -5 -4 -4 -6 -5 -7 -7
7 9 6 5 6 7 5 7 9 7 5 5 2 -0 5 1 6 9 9 6 5 4 5 5 4 4 3 3 3 1 0 0 -0 -1 -1 -3 -5 -5 -5 -8 -10 -10 -12 -13
10 8 8 6 7 7 8 8 8 7 7 8 9 10 9 9 0 4 3 4 6 2 1 0 1 1 0 -0 -1 -2 -3 -4 -5 -5 -6 -8 -9 -12 -12 -12 -16 -16 -18 -18
11 11 10 11 10 11 10 9 6 7 6 4 5 -2 1 3 4 3 2 1 2 1 -0 -4 -4 -3 -3 -4 -5 -6 -5 -5 -6 -8 -10 -12 -11 -13 -17 -18 -19 -20 -23 -25
14 14 14 14 14 13 12 10 9 6 3 -4 -0 1 -0 -3 -2 -0 -4 -6 -6 -6 -6 -5 -4 -4 -5 -7 -6 -9 -9 -10 -12 -12 -18 -17 -18 -22 -22 -24 -26 -28 -28 -27

GFSNGP_sfc_dewp_105.txt.gz
Dewpoint
29 30 31 28 26 26 24 23 21 23 24 26 37 41 44 44 45 45 44 44 44 43 43 43 47 52 53 54 55 55 53 52 51 52 52 53 53 53 53 53 53 54 54 55
28 30 28 23 24 28 28 27 28 27 26 39 41 43 41 42 42 42 42 41 41 41 40 40 41 45 54 54 55 55 53 53 52 52 52 53 53 53 53 52 52 53 52 53
20 27 24 17 23 26 29 35 34 27 34 38 39 41 40 40 40 39 39 39 39 38 38 38 39 43 47 53 56 55 55 54 53 52 52 53 53 52 52 52 52 52 52 52
23 24 14 31 37 33 32 34 36 34 37 37 40 40 39 38 38 37 36 37 37 37 36 37 38 39 42 52 55 55 55 55 54 54 53 52 52 52 52 52 52 52 52 52
22 21 21 28 35 35 34 33 37 38 39 37 38 40 38 37 36 35 35 35 36 36 36 35 36 37 38 39 41 41 42 43 45 47 52 54 53 53 53 53 53 52 52 51
25 18 16 28 37 37 38 29 36 37 39 38 35 35 36 35 34 33 34 35 35 34 34 33 35 35 35 34 35 35 37 37 38 39 42 43 44 52 54 54 53 53 46 39
23 20 21 33 35 38 27 29 38 37 38 38 36 36 35 34 32 33 34 32 33 33 32 31 32 31 31 31 31 32 33 33 34 35 36 37 40 40 42 51 39 35 33 33
25 21 16 34 35 30 35 36 35 35 35 35 35 34 32 31 30 31 31 32 32 31 30 29 29 29 28 28 30 30 31 31 31 32 33 34 35 36 36 36 34 32 31 31
27 28 34 35 34 33 35 33 32 33 33 32 31 30 29 29 28 29 30 30 32 31 29 29 28 27 27 28 29 29 30 30 30 30 31 31 32 32 33 32 31 30 30 29
33 34 34 33 32 31 30 30 29 29 29 30 28 28 26 26 26 27 28 28 29 29 28 27 27 26 26 28 28 28 28 28 28 28 29 30 30 30 30 31 31 30 29 28
32 33 34 33 34 33 31 29 27 26 25 25 26 25 24 24 24 24 26 27 28 27 27 26 26 25 25 26 27 26 27 26 26 26 27 27 28 29 29 30 30 28 28 28
26 31 32 31 32 31 28 25 24 24 23 22 23 23 23 23 23 23 23 24 24 24 24 25 25 24 24 24 25 26 26 25 26 25 25 25 25 26 29 29 29 29 28 27
29 33 32 32 31 31 27 22 21 21 21 20 21 21 21 21 21 22 22 22 23 24 25 25 25 25 25 24 24 25 26 26 24 23 23 23 22 23 22 25 28 28 28 28
32 33 29 30 28 29 23 22 22 19 19 19 19 19 19 18 18 18 20 21 21 21 23 23 23 24 25 24 23 23 23 22 24 23 23 22 21 21 21 19 19 20 25 26
27 30 28 26 24 22 22 21 20 19 18 18 18 17 17 16 16 17 18 18 18 18 19 20 21 23 24 23 22 22 22 22 22 22 21 20 20 20 19 19 19 19 19 16
24 24 24 22 20 19 19 19 18 18 18 17 16 16 15 15 15 16 16 16 15 16 17 19 19 22 23 22 22 21 21 20 21 21 21 20 19 18 17 16 15 15 14 15
22 18 18 19 18 17 17 16 17 16 15 15 14 15 14 14 13 14 15 16 16 16 17 18 19 21 22 22 22 21 21 20 19 19 19 18 17 15 14 13 12 11 10 10
17 18 17 18 18 17 15 14 13 13 13 13 12 11 10 11 11 12 12 13 13 14 15 17 18 19 20 21 21 21 20 19 19 18 17 16 15 14 13 11 9 9 8 7
15 15 15 15 15 14 13 12 12 11 11 10 9 8 8 8 10 10 11 10 11 12 13 16 18 18 18 19 19 19 18 18 16 15 14 12 12 10 10 10 9 8 7 6
12 12 12 11 11 12 10 10 10 9 10 9 8 8 7 8 9 9 10 9 10 12 14 15 16 16 16 15 17 16 17 16 13 13 12 11 11 10 8 6 6 6 6 6
9 10 9 8 8 8 8 8 7 7 7 7 7 6 6 8 8 9 9 9 11 12 12 11 12 13 12 13 13 15 14 13 12 11 10 10 9 8 7 7 6 6 5 4
8 7 7 8 7 7 7 8 7 6 6 6 7 7 8 8 8 8 9 9 10 9 9 9 9 8 8 10 10 12 10 10 10 10 10 9 8 7 7 6 5 5 4 4
8 8 7 6 7 7 7 6 5 5 4 5 5 7 8 8 9 8 6 8 8 8 7 8 6 6 7 10 10 10 9 8 8 8 8 7 7 7 6 5 5 4 4 3
10 9 9 10 9 8 7 9 8 8 6 7 6 6 8 8 8 8 7 6 5 6 8 7 6 5 6 8 8 8 7 7 7 6 5 4 6 5 5 4 3 3 2 1
11 11 10 10 9 8 9 9 8 8 8 8 9 8 7 7 7 7 8 7 6 5 6 3 3 4 6 6 6 5 5 5 5 4 4 4 3 3 3 2 2 2 0 1
13 12 12 12 11 11 10 8 7 7 6 7 7 8 8 7 6 6 6 5 4 3 4 4 4 5 5 4 4 3 3 3 3 2 1 2 1 1 1 0 0 0 0 -1
15 14 14 13 14 13 11 10 9 7 7 8 6 8 6 5 5 4 3 4 4 4 4 4 4 3 3 4 3 3 3 2 0 1 1 1 0 -1 -1 -2 -2 -2 -2 -3

GFSNGP_sfc_dewp_108.txt.gz
Dewpoint
26 27 28 26 24 23 21 22 21 17 19 25 34 37 40 41 40 41 40 40 40 40 41 40 39 39 41 55 55 54 54 54 54 54 53 54 54 54 54 54 55 55 55 55
25 25 27 25 23 23 22 23 23 23 23 35 39 39 39 39 39 39 38 38 38 38 38 38 37 38 40 53 55 54 54 53 53 53 52 53 54 54 54 54 53 55 55 55
20 23 23 21 22 22 24 28 29 25 32 35 36 38 38 38 37 36 36 36 36 36 37 37 37 38 39 45 55 54 54 54 53 53 52 53 53 53 53 53 54 54 53 55
22 21 17 29 33 30 25 30 31 32 36 35 39 38 36 36 35 35 34 34 35 35 36 35 36 37 39 45 53 52 51 52 53 53 53 53 52 52 53 53 53 53 54 54
23 19 17 20 36 32 29 33 37 38 38 36 39 38 36 34 34 33 33 33 35 34 34 35 35 35 36 35 39 40 40 41 42 46 49 53 53 53 54 53 53 54 53 53
23 17 12 33 37 36 37 31 37 38 37 37 37 37 34 34 33 32 32 32 34 33 33 33 34 34 34 33 33 35 36 37 38 40 41 42 43 46 52 54 54 52 41 39
23 20 18 31 34 38 30 32 37 37 37 37 35 35 34 33 30 30 32 33 33 32 31 31 33 33 33 33 32 33 34 34 35 35 37 37 39 39 42 44 37 35 33 33
25 21 17 34 34 33 36 36 35 35 35 35 34 33 31 30 28 29 30 30 32 31 30 31 30 31 30 30 32 33 32 31 32 33 33 34 35 35 36 35 33 32 31 31
31 31 35 34 33 34 35 34 33 33 32 32 31 29 29 28 27 29 30 30 31 30 30 29 28 29 28 29 30 30 29 29 30 31 31 31 33 33 33 33 31 30 29 28
33 33 33 34 35 33 31 31 30 30 30 30 29 27 26 25 25 27 29 28 29 28 27 27 28 26 28 29 29 28 28 28 28 28 29 30 30 30 31 31 30 29 28 26
32 33 33 31 33 34 31 30 28 27 27 27 27 25 25 24 24 24 26 28 28 27 26 26 26 27 26 27 29 28 27 27 28 27 27 27 28 28 28 30 30 28 27 27
30 32 31 31 32 31 29 26 25 25 24 25 25 24 24 23 23 23 23 24 25 26 24 24 24 24 25 26 28 29 28 26 27 26 27 26 26 26 29 29 29 29 28 28
31 33 32 32 32 32 29 27 23 22 22 22 22 22 22 22 22 22 22 22 23 25 26 26 25 25 26 26 27 29 29 30 27 26 26 26 26 25 24 27 28 28 28 28
34 34 30 31 28 29 28 26 23 20 20 21 20 20 20 20 20 20 20 21 21 22 23 24 24 24 26 27 27 27 27 26 28 28 27 27 26 26 27 25 24 24 24 25
31 31 30 29 28 26 23 22 20 19 19 19 19 19 19 18 18 19 19 19 19 20 21 22 22 24 25 25 25 26 26 26 26 26 26 25 26 25 25 25 24 24 24 22
25 26 27 26 23 21 20 20 19 19 18 18 17 17 17 17 17 18 19 18 18 19 20 21 21 24 25 27 26 26 25 24 25 25 25 25 24 24 23 22 22 21 21 22
22 20 20 22 19 17 17 16 17 16 16 16 16 16 15 15 16 17 18 19 19 19 20 21 21 22 24 25 26 25 25 24 24 24 24 23 22 22 21 21 20 18 16 16
18 17 17 17 17 17 15 14 14 14 14 14 15 15 15 16 16 16 17 17 18 17 19 20 21 22 22 23 24 24 23 23 22 22 22 22 21 19 19 17 15 14 14 14
16 17 17 16 16 15 13 13 13 13 14 14 13 13 13 14 15 15 16 16 17 17 17 20 20 21 21 22 22 22 23 22 21 19 19 19 19 17 17 17 16 15 13 13
14 14 14 13 14 14 13 14 14 13 13 13 13 13 13 13 13 14 15 14 14 15 17 18 20 19 19 19 19 20 21 21 18 19 19 17 17 16 14 12 13 14 14 14
14 13 12 12 11 11 12 12 12 11 12 12 12 11 11 12 13 16 16 14 15 15 15 13 13 14 13 15 17 21 21 20 19 18 17 16 16 15 14 14 14 13 13 12
13 12 11 11 11 11 12 13 12 11 11 11 11 12 13 13 13 12 12 13 12 12 12 12 11 12 12 14 15 18 16 15 16 16 16 15 15 14 13 13 12 12 12 11
13 13 12 11 11 12 11 11 10 10 10 10 11 12 12 12 13 13 12 9 9 10 10 12 10 11 13 17 17 16 15 14 14 14 14 14 14 13 12 11 11 11 10 9
13 13 13 13 13 12 11 12 12 12 11 11 10 11 13 13 12 9 8 8 8 10 11 11 10 10 12 15 15 14 14 14 13 13 12 10 12 11 10 10 9 9 8 7
14 14 13 13 13 12 12 12 10 10 10 11 10 9 9 9 12 10 11 10 8 9 11 7 7 8 13 13 12 12 12 12 12 12 11 10 9 9 9 8 8 8 6 7
16 15 15 15 14 13 12 11 10 9 8 9 9 12 12 10 9 9 9 7 7 6 9 10 10 10 10 10 9 9 9 8 8 8 7 8 7 7 6 6 6 6 6 6
17 14 15 14 14 14 13 11 13 10 10 13 10 11 10 10 9 7 7 9 9 9 9 9 9 7 8 8 8 7 7 7 5 6 7 6 6 6 4 5 5 5 5 4

GFSNGP_sfc_dewp_111.txt.gz
Dewpoint
27 27 26 27 26 20 17 19 19 21 24 31 37 39 39 39 38 38 38 38 38 39 39 40 40 40 39 41 42 55 55 55 55 56 56 56 55 55 56 55 55 54 55 55
22 20 22 21 19 19 17 15 16 16 15 35 38 38 37 37 37 37 37 36 36 37 37 37 38 37 38 39 40 46 55 54 55 55 56 55 55 55 55 56 55 55 55 55
19 19 19 19 20 19 18 19 21 21 31 34 37 36 36 36 35 35 34 35 35 35 35 36 37 36 37 37 38 46 54 54 54 54 54 55 54 54 54 54 55 55 55 55
24 20 17 24 28 24 20 29 31 29 33 34 37 36 34 34 34 33 33 33 34 34 33 35 35 36 37 36 38 49 50 52 54 54 53 53 53 54 54 54 54 55 55 55
23 20 19 19 35 37 33 35 37 36 36 38 36 35 34 33 33 33 32 33 33 33 33 34 34 35 35 34 34 37 39 41 43 47 51 53 53 53 54 54 54 54 54 55
26 18 17 32 31 35 36 34 38 37 36 35 37 36 34 33 32 31 32 32 32 32 31 33 33 34 33 33 33 33 35 36 37 40 42 43 44 47 50 54 51 44 40 38
24 21 25 30 32 35 31 31 37 36 36 35 34 34 33 32 30 30 30 31 33 33 33 32 33 33 32 32 31 32 34 34 35 35 37 38 39 40 42 39 36 35 33 32
27 24 22 33 33 32 35 37 35 35 34 33 33 33 31 29 29 30 29 30 31 31 31 33 32 32 32 31 32 33 33 32 32 33 33 35 35 35 35 35 33 32 30 29
33 31 34 34 34 33 34 33 32 32 32 32 31 30 29 29 28 29 30 30 30 29 29 30 32 32 32 32 32 32 31 31 31 32 31 32 32 33 32 32 31 30 28 27
30 31 32 34 34 33 31 30 29 30 30 30 30 29 27 27 26 28 29 29 29 28 27 27 29 30 30 30 29 29 28 29 28 28 28 29 29 29 30 30 29 28 27 26
33 33 32 32 34 35 32 30 28 28 28 28 28 27 27 26 25 25 26 28 28 28 27 26 28 27 27 29 29 27 27 27 27 27 27 26 28 28 27 29 29 27 27 27
30 32 34 32 34 34 31 28 26 26 26 26 26 25 26 25 25 24 25 25 25 26 26 27 27 27 26 28 29 28 27 26 27 26 26 26 25 25 29 29 30 30 28 28
32 34 33 33 33 32 30 29 27 23 23 23 23 23 23 23 23 24 23 23 24 26 26 26 26 26 28 28 29 29 29 30 28 28 28 28 27 25 24 25 27 28 28 28
35 35 31 32 30 30 29 28 29 25 22 22 22 22 22 22 21 21 21 21 22 22 24 24 25 26 28 30 30 29 29 28 29 29 30 30 29 28 28 26 24 25 26 26
32 31 30 30 30 29 29 25 22 20 20 20 20 21 21 20 20 20 20 21 21 21 21 22 23 24 28 27 28 29 28 28 28 29 29 29 29 28 28 28 26 26 26 26
29 28 27 27 27 26 24 21 20 20 19 20 19 18 19 19 19 19 19 19 19 20 20 22 21 25 27 29 29 28 28 28 27 28 27 27 26 25 24 23 22 21 22 26
26 23 22 25 24 20 17 17 17 18 17 17 17 18 18 18 17 18 19 20 20 21 21 21 23 24 26 29 30 28 28 27 26 25 25 25 24 23 22 21 20 18 18 20
19 18 18 18 19 18 16 16 16 15 15 16 17 18 18 18 17 18 19 21 22 20 21 22 24 24 24 28 29 28 26 25 25 24 24 24 23 21 20 18 16 16 16 17
17 18 18 17 17 16 15 14 14 14 16 17 16 16 16 16 17 18 19 18 19 17 19 23 24 24 23 24 26 27 26 26 24 23 22 22 22 20 20 20 18 18 16 16
15 15 15 15 16 15 15 16 16 15 16 16 16 16 15 15 16 19 19 16 17 18 20 19 22 20 21 22 23 22 24 23 20 21 21 19 19 18 17 16 17 17 18 17
15 15 14 14 14 14 15 15 15 14 14 15 15 14 14 15 14 16 19 16 16 17 18 15 14 15 15 17 19 23 23 22 22 20 20 19 19 18 18 17 17 17 16 15
15 14 14 14 14 14 15 15 14 13 13 13 13 14 17 18 16 14 13 15 13 14 14 13 13 15 16 17 17 20 18 18 19 19 19 19 18 17 17 16 15 15 15 14
16 15 14 14 14 14 14 14 13 13 13 13 14 15 14 14 14 15 13 10 10 12 11 13 12 14 16 19 19 19 18 17 17 17 17 17 17 16 15 14 14 14 13 13
16 15 15 15 15 14 14 15 14 14 13 14 13 13 15 17 15 12 10 9 10 11 11 12 12 12 14 17 17 17 16 16 16 16 14 12 15 14 13 12 11 11 10 10
16 16 15 16 16 14 15 14 13 13 12 12 12 11 11 11 15 13 13 11 9 11 13 9 9 11 15 15 14 14 13 14 14 14 13 13 13 12 12 11 11 10 9 9
19 17 16 17 16 15 13 13 13 12 11 12 12 14 14 13 11 11 10 8 9 8 11 12 12 13 12 11 11 11 12 10 11 10 10 10 10 10 9 8 8 8 8 8
17 15 16 16 15 15 14 13 16 13 13 15 12 13 12 13 11 9 10 12 11 11 12 12 11 9 10 11 10 10 10 9 7 9 10 9 9 8 7 7 7 7 6 5

GFSNGP_sfc_dewp_114.txt.gz
Dewpoint
27 25 32 35 31 21 8 15 16 29 29 36 40 40 38 37 37 37 37 36 36 37 37 37 37 38 37 38 39 40 41 48 55 56 57 57 56 56 56 57 55 55 56 56
23 17 25 30 32 31 31 28 25 24 26 41 40 37 36 36 35 35 35 35 35 35 34 34 35 35 36 36 37 39 42 47 56 56 56 57 56 56 56 56 55 54 53 56
19 19 17 16 19 19 17 18 21 25 36 40 35 35 35 34 34 34 33 33 33 34 33 34 34 35 35 36 37 37 43 53 55 55 56 56 56 55 55 55 55 55 54 54
25 24 14 30 33 34 29 34 34 34 36 35 34 34 33 33 33 32 32 32 32 33 32 33 33 34 35 35 35 35 36 41 50 55 55 56 55 55 55 55 55 55 55 55
24 22 19 30 31 33 34 36 37 35 36 35 34 35 34 32 33 32 32 32 32 32 32 33 33 34 34 33 34 34 33 35 38 43 54 55 54 54 55 54 55 53 50 47
25 20 18 29 30 32 34 31 34 38 35 35 36 36 32 32 31 30 30 31 32 32 32 32 32 34 33 32 32 32 32 33 35 37 42 46 49 51 50 50 43 39 36 35
24 21 29 32 32 32 28 30 37 37 35 34 32 32 32 31 30 30 30 29 30 30 30 31 33 33 32 32 31 32 32 33 34 34 36 37 39 41 41 38 35 33 31 31
28 23 24 34 31 31 35 37 38 35 33 32 31 32 31 30 29 30 29 29 29 28 29 30 31 31 32 31 32 32 32 31 32 32 33 34 34 35 35 34 32 30 29 28
32 29 34 34 35 36 35 32 31 31 31 31 30 29 30 28 29 29 30 29 29 29 28 29 29 30 30 32 32 32 30 29 30 31 32 32 32 32 32 31 30 28 27 26
31 30 30 32 35 36 36 33 29 29 29 29 29 28 27 27 27 28 30 29 28 28 28 27 29 30 30 32 33 32 30 29 28 28 28 30 30 30 29 29 28 27 26 25
31 30 32 31 34 35 35 32 30 28 27 27 27 26 26 26 25 26 28 29 28 27 26 26 28 28 30 31 32 30 30 28 28 27 26 26 28 28 27 28 28 27 27 27
26 30 33 31 34 35 31 31 27 25 25 25 25 25 25 24 24 23 24 25 25 25 26 26 26 26 29 30 30 29 28 28 28 27 25 24 24 25 29 29 30 30 30 29
31 34 32 34 34 34 31 30 28 26 23 22 23 23 23 23 23 23 22 22 23 26 26 26 26 27 28 30 29 29 29 29 29 29 28 27 25 23 22 25 28 30 30 31
34 35 31 31 29 33 34 31 29 26 23 22 22 22 22 21 21 20 22 22 22 22 23 23 24 25 29 29 29 28 28 28 29 29 29 28 26 25 24 22 22 24 27 26
31 30 30 31 31 30 31 31 27 21 21 21 20 20 21 20 19 19 19 20 20 20 21 22 22 24 28 30 28 28 28 28 28 28 28 27 27 26 26 26 26 26 26 26
28 27 27 27 28 27 27 26 24 20 20 20 19 20 19 19 18 19 19 19 18 19 20 22 22 23 27 30 30 29 28 28 28 28 27 26 25 23 21 21 20 20 23 24
26 26 20 22 23 22 21 19 17 18 17 17 17 17 20 17 17 18 21 20 20 21 22 22 23 24 25 28 29 29 28 27 26 26 25 25 24 22 20 19 18 18 19 20
20 19 19 19 18 18 17 16 16 16 16 16 18 18 17 17 17 18 20 21 19 18 19 23 24 25 25 27 28 27 25 24 24 24 24 24 23 21 19 17 17 16 17 17
18 17 18 17 17 16 15 14 15 15 17 19 18 17 17 18 19 18 17 16 16 16 18 19 24 24 24 26 27 27 26 25 25 24 23 23 23 21 20 19 18 17 17 16
15 15 14 14 15 16 15 17 16 16 18 19 17 17 16 15 15 18 16 15 16 19 19 17 19 20 23 23 25 25 25 23 22 22 21 19 18 18 17 17 17 17 16 15
16 15 14 14 15 16 16 17 16 14 14 14 16 15 14 15 14 15 18 14 16 19 17 16 15 19 19 20 21 24 24 23 23 22 20 19 19 18 17 17 16 16 15 14
16 15 15 16 15 14 16 16 15 15 15 15 13 15 19 17 15 13 12 14 14 15 13 13 15 17 19 19 20 21 20 20 20 20 19 19 18 17 16 16 15 14 14 13
17 16 15 16 15 14 15 14 15 15 14 13 12 14 15 14 14 13 10 10 9 11 11 13 13 16 18 20 20 19 19 18 18 18 18 18 17 16 15 15 15 14 14 13
17 17 16 16 20 18 16 17 17 15 15 16 13 13 14 18 16 13 10 9 12 11 11 12 13 14 15 17 17 17 18 17 17 16 15 14 15 14 14 12 10 10 9 7
17 17 17 18 18 15 16 15 16 16 16 14 14 12 12 11 14 12 14 13 10 13 13 10 11 11 15 15 14 12 12 12 14 15 14 14 13 12 12 10 10 9 7 8
20 20 17 18 17 15 14 14 14 12 13 15 14 16 16 16 14 14 12 9 12 10 14 12 11 14 13 12 12 12 13 12 11 11 11 11 10 10 8 9 8 8 8 4
17 17 17 16 15 16 14 12 18 16 16 17 14 15 14 14 12 11 11 14 14 14 14 13 12 10 11 12 12 12 10 9 4 10 10 10 9 8 7 7 7 6 3 1

GFSNGP_sfc_dewp_117.txt.gz
Dewpoint
29 29 34 34 31 30 26 25 20 29 35 38 38 39 38 36 34 34 34 34 34 34 34 33 34 34 35 36 36 37 37 38 40 44 55 57 58 58 58 57 56 57 58 57
27 26 27 28 31 29 29 29 29 32 37 39 40 38 35 34 33 32 33 33 33 33 32 32 32 33 34 35 35 36 36 37 39 47 55 56 57 57 57 56 55 56 56 56
24 26 26 30 34 34 33 37 33 32 38 36 34 33 33 33 32 32 32 32 32 32 31 32 32 33 34 34 34 35 35 36 37 40 56 56 56 56 56 56 55 54 55 55
26 26 20 31 31 34 34 34 36 38 38 36 34 32 32 32 31 31 31 31 32 32 31 31 32 32 34 33 33 32 33 34 35 37 45 56 56 56 56 56 55 54 54 55
23 23 28 27 30 31 33 32 35 37 35 33 33 32 31 31 31 30 31 31 32 32 31 32 31 32 33 32 31 31 31 32 34 36 38 54 55 55 56 55 55 51 51 48
24 21 21 28 31 33 33 26 36 35 35 35 35 32 30 30 31 29 29 30 31 32 30 31 31 31 33 32 31 30 30 32 33 35 35 38 51 55 54 48 42 39 35 35
25 23 28 31 33 33 24 28 35 36 35 31 30 31 31 30 29 29 29 29 29 30 29 29 31 31 30 31 30 30 31 31 32 33 34 34 38 45 42 37 35 32 31 31
25 22 20 35 31 28 33 37 36 36 34 32 32 31 30 29 28 28 28 28 28 28 28 29 30 30 29 30 31 31 30 29 29 31 33 33 33 35 35 34 31 30 28 27
27 26 33 34 34 36 36 32 30 30 31 30 29 29 28 28 28 28 29 28 29 28 27 27 28 29 27 31 31 31 29 27 27 29 30 32 31 31 30 31 29 28 27 26
31 30 31 30 32 35 35 35 31 28 27 28 28 27 27 27 27 29 29 28 28 27 25 25 26 28 29 31 32 30 29 28 27 26 27 29 29 30 29 28 27 27 26 25
28 29 31 30 32 33 32 32 29 29 28 28 27 26 25 24 24 25 27 27 27 26 25 24 26 27 29 29 30 30 29 29 27 26 26 27 28 28 28 29 29 27 27 28
25 29 31 29 32 32 29 30 28 26 25 24 25 24 24 23 23 23 24 25 24 24 24 24 25 26 28 29 28 28 28 28 28 27 26 25 26 26 30 31 32 32 32 30
30 33 31 32 33 33 31 31 29 26 27 27 24 23 23 22 21 22 23 22 22 23 23 23 24 25 28 29 28 28 27 28 28 27 26 25 24 24 23 27 30 31 31 31
34 34 29 30 29 32 33 34 29 26 25 26 25 24 21 20 20 19 21 20 20 20 22 22 23 23 28 28 28 28 28 27 28 28 27 26 25 24 24 23 22 24 28 27
29 30 30 30 29 28 29 31 28 26 26 24 22 21 21 20 19 19 19 19 18 19 20 21 21 22 26 30 28 27 28 28 27 27 25 24 23 22 21 22 24 23 23 22
29 27 27 26 25 25 26 26 24 22 21 18 18 22 19 19 21 20 18 18 17 18 20 20 21 23 25 28 28 27 27 26 26 26 24 22 21 20 19 19 19 19 20 20
28 20 21 22 22 19 17 17 17 17 17 17 17 17 17 17 17 17 21 19 16 16 18 20 21 23 24 26 25 25 24 25 25 24 23 22 20 19 18 17 17 17 17 17
19 18 18 18 19 17 16 15 15 15 16 16 16 16 16 16 16 16 15 15 13 11 15 17 22 21 23 25 26 25 24 24 23 23 23 22 20 19 18 17 16 15 15 15
16 16 16 16 16 15 14 13 15 15 17 17 13 10 10 13 14 9 5 10 10 11 13 15 20 20 20 24 24 23 22 21 20 20 20 19 19 18 17 16 15 14 14 13
14 14 13 14 14 14 12 11 11 9 11 10 8 8 9 11 12 9 4 8 12 15 13 15 17 20 22 22 22 23 21 19 19 17 17 16 15 15 15 14 14 12 11 11
13 11 11 12 11 9 7 6 5 4 2 3 5 7 6 6 9 10 8 9 12 13 14 15 16 19 19 19 20 20 17 17 18 16 15 13 14 13 13 12 11 9 10 10
10 10 9 10 11 10 10 7 7 6 8 7 7 10 12 10 7 8 5 10 11 10 11 13 14 15 17 17 17 16 17 16 16 16 14 13 11 10 10 7 7 7 6 4
10 11 11 8 6 5 5 6 2 2 1 -0 1 6 11 10 11 8 6 10 10 9 11 11 11 12 12 15 14 13 12 11 12 11 11 11 10 10 10 9 9 8 5 6
12 10 8 11 12 15 11 7 7 6 3 4 2 1 10 13 12 13 11 10 8 3 7 11 9 10 7 8 7 7 8 12 10 8 8 5 5 4 2 0 1 -3 -3 -1
9 7 9 10 13 8 8 10 13 12 14 13 11 13 12 13 3 6 4 4 9 9 3 4 8 4 6 9 8 5 6 6 7 8 9 9 8 2 1 3 1 4 5 3
12 17 11 11 12 14 16 18 13 11 18 13 10 4 4 7 12 12 8 6 5 7 3 -3 2 7 5 4 2 1 -0 3 4 4 2 1 -0 -1 -0 2 -1 -4 -10 -13
12 13 15 17 18 15 14 15 15 13 9 7 7 4 8 4 4 8 4 5 4 5 4 -3 -5 -2 1 -1 3 5 -3 -3 -0 2 2 1 -2 -4 -3 -5 -7 -11 -13 -13

GFSNGP_sfc_dewp_120.txt.gz
Dewpoint
28 29 34 34 33 31 30 31 23 31 35 35 36 36 36 35 35 33 33 32 32 32 31 31 32 32 33 34 34 34 35 36 36 38 39 41 47 53 58 58 59 59 58 58
26 27 33 32 32 32 32 33 35 35 35 38 38 35 33 34 33 32 32 32 32 31 31 31 31 32 32 33 32 33 33 33 34 36 38 40 44 54 57 57 58 58 57 56
24 26 30 25 30 31 31 32 36 32 36 36 32 31 31 31 31 31 31 30 30 30 30 30 30 32 32 32 32 31 32 32 33 35 36 38 41 54 57 57 57 57 57 56
25 25 21 32 31 35 32 32 33 35 34 34 32 30 31 30 30 30 30 30 31 31 30 29 31 30 31 31 31 30 30 30 31 33 34 37 39 47 56 56 56 56 55 55
23 23 31 27 28 31 31 30 35 34 35 35 32 31 30 30 30 29 29 29 30 30 29 30 30 29 30 30 30 29 29 29 30 31 33 36 37 40 56 56 55 55 54 52
25 21 19 26 29 32 33 25 35 33 33 35 36 29 29 30 29 28 28 28 28 28 28 28 28 29 29 29 28 28 29 29 29 30 31 34 35 37 55 52 44 42 38 38
24 23 26 30 31 32 21 27 35 35 34 31 29 30 31 29 28 27 27 27 28 27 27 27 28 29 28 28 27 30 29 28 28 29 30 33 34 35 40 39 36 34 32 32
23 20 17 32 29 26 32 32 33 33 32 31 31 30 30 27 27 26 26 27 27 26 26 27 27 29 27 28 30 30 29 26 26 28 29 31 33 32 33 34 32 31 31 29
26 25 32 32 33 34 36 33 31 29 29 30 29 28 28 28 27 27 27 26 26 26 25 26 27 28 26 29 30 29 27 26 26 27 29 30 30 30 30 31 30 31 30 27
29 29 29 30 31 33 34 32 31 34 28 28 27 26 25 25 26 26 26 24 23 23 24 24 27 26 27 28 29 29 28 26 26 26 27 28 30 29 29 28 28 28 27 26
26 29 29 29 30 29 29 30 27 27 28 26 26 24 23 23 23 24 24 23 22 21 22 23 25 25 27 28 28 28 27 27 26 26 26 27 28 29 29 30 30 28 28 28
18 25 29 27 30 30 28 28 28 27 25 24 24 23 23 22 23 22 21 22 21 21 21 22 23 25 26 27 27 27 27 26 26 25 25 25 26 26 30 30 31 31 31 30
30 31 30 30 31 32 30 30 28 26 28 27 26 23 21 20 20 21 20 20 20 21 22 21 21 23 26 28 28 27 26 27 26 26 25 24 24 24 23 26 29 30 30 30
32 31 27 30 28 30 30 33 30 27 28 27 26 24 22 20 18 18 19 19 19 20 21 22 22 23 25 28 25 27 27 26 25 24 23 23 22 23 24 22 20 21 26 27
28 29 29 28 27 27 29 29 25 24 24 23 25 23 20 18 16 16 17 18 17 18 19 20 21 21 25 27 26 25 26 25 24 23 22 21 21 21 21 21 20 20 20 20
30 28 27 25 23 23 23 22 20 20 20 21 20 22 19 19 20 17 17 17 15 15 17 17 20 22 24 25 24 23 24 24 23 22 21 20 20 19 18 18 17 16 16 17
21 20 21 22 18 17 16 16 16 16 16 15 16 17 16 16 16 16 17 17 16 14 16 16 19 22 23 24 23 22 22 22 21 21 20 20 19 18 17 16 15 14 14 15
19 19 18 21 17 16 14 14 15 15 14 14 15 15 14 14 13 13 13 14 13 12 13 15 19 21 21 23 23 23 22 21 21 21 20 19 19 18 17 16 15 13 13 12
15 15 16 15 15 14 13 13 14 15 15 13 11 9 9 11 9 5 8 10 11 10 12 16 19 19 21 23 23 21 20 18 18 18 18 17 17 16 14 14 12 12 11 10
13 13 13 14 14 13 9 7 8 7 5 6 5 6 5 8 7 2 2 8 10 11 14 15 17 19 20 20 20 20 19 18 17 16 16 14 13 13 12 11 11 10 8 8
9 9 9 10 8 7 3 2 5 7 8 7 5 5 4 3 7 7 7 8 9 9 14 15 16 18 18 19 18 18 17 17 15 13 12 10 11 11 10 9 8 7 6 5
5 5 2 3 6 2 0 1 2 -2 -2 0 3 3 2 3 2 3 2 7 11 10 13 14 14 13 14 15 15 15 15 14 13 12 11 10 7 7 5 6 5 4 2 -1
8 7 6 3 3 2 1 1 -4 -3 -3 -5 -2 3 3 3 4 1 2 9 10 9 12 12 10 10 9 9 9 9 10 9 9 10 8 6 3 2 2 2 1 1 -1 -3
5 6 4 5 5 10 6 2 4 4 -2 0 -3 -3 8 1 2 12 10 7 3 0 2 7 7 8 7 6 7 7 7 8 7 5 6 5 0 -1 -2 -4 -5 -5 -4 -5
7 4 5 6 10 6 6 7 7 8 11 12 9 11 11 10 1 3 -0 2 7 2 -0 1 5 2 1 1 2 2 3 2 3 4 3 1 -1 2 1 -2 -5 -4 -4 -7
8 9 9 10 12 11 11 15 10 12 14 7 6 -2 -3 1 6 7 3 3 3 1 -4 -9 -6 -3 -3 -3 -4 -4 -0 2 1 1 -2 -5 -7 -6 -7 -7 -7 -8 -11 -17
9 10 11 12 14 13 13 14 10 7 9 7 5 0 0 -3 -2 3 -1 -6 -6 0 -6 -10 -11 -6 -5 -5 -3 -7 -7 -7 -6 -6 -10 -12 -13 -13 -13 -15 -16 -18 -18 -17

GFSNGP_sfc_dewp_123.txt.gz
Dewpoint
26 27 32 33 33 33 30 32 30 33 31 32 32 33 32 34 34 33 33 32 32 31 30 31 31 31 31 33 33 32 32 32 33 34 35 36 38 40 43 48 56 59 59 59
25 28 31 25 28 29 28 31 35 33 30 35 34 31 31 32 33 31 31 31 31 30 30 30 30 30 31 32 32 32 31 31 32 32 33 35 37 39 41 45 55 58 59 58
22 25 33 24 28 30 30 31 33 30 32 33 30 29 29 30 30 30 30 30 31 29 29 28 28 29 30 32 31 31 30 30 31 31 32 33 35 37 40 43 54 57 58 58
25 26 18 30 33 34 31 31 32 33 33 32 30 30 30 30 29 28 28 28 29 28 27 29 28 29 30 31 29 29 28 28 29 30 30 32 34 36 38 41 50 57 57 57
22 24 28 25 27 29 30 29 32 31 34 35 32 32 28 29 28 27 27 27 28 27 28 28 28 28 29 28 28 28 28 27 27 28 29 31 33 34 37 40 44 56 56 55
25 21 17 26 28 30 33 24 33 32 32 30 30 28 27 28 27 26 27 27 27 26 26 27 28 29 27 28 28 28 28 27 27 28 29 30 31 34 35 38 48 44 39 44
23 24 25 29 29 31 22 24 33 33 33 30 28 30 29 28 26 25 25 26 26 26 26 28 27 28 26 27 28 29 28 26 26 27 28 29 30 33 34 35 36 35 34 34
22 19 15 30 28 25 31 33 32 29 32 31 30 30 28 27 26 25 24 24 25 24 25 27 26 27 25 27 28 29 28 25 25 27 28 29 29 30 32 31 33 32 33 32
27 25 30 32 32 34 34 32 32 30 29 30 29 28 28 27 26 25 24 23 23 22 22 23 26 27 27 26 27 27 25 24 24 25 27 27 28 28 29 30 29 29 31 31
28 29 29 29 29 30 31 30 30 32 29 28 28 27 25 24 24 24 23 21 20 20 21 22 24 26 27 26 26 26 24 23 24 24 25 26 27 28 28 28 28 28 28 28
26 29 29 28 27 28 28 30 28 26 26 26 26 26 24 23 21 21 20 21 20 20 20 21 23 24 26 26 26 26 26 24 24 24 24 25 27 27 27 28 29 28 28 28
14 28 29 28 30 30 27 27 29 28 26 26 24 24 23 21 21 19 19 19 19 20 20 21 22 24 25 27 26 25 25 24 24 24 24 24 24 25 27 28 29 30 30 28
30 31 29 29 30 31 32 30 28 27 26 25 25 24 22 19 19 19 18 18 19 19 19 19 19 21 24 27 25 25 24 24 23 23 23 22 23 22 21 23 26 27 28 28
32 30 26 28 27 28 31 29 29 27 25 24 23 23 21 19 17 17 17 17 17 18 19 19 20 20 23 26 25 24 24 23 21 22 21 21 21 21 21 19 18 18 22 25
28 28 27 26 25 25 27 25 22 21 21 21 23 22 21 20 18 18 17 16 15 16 17 17 19 19 23 24 23 23 23 22 21 20 20 20 20 19 19 18 17 16 17 19
28 26 24 22 19 19 20 19 18 17 16 16 18 20 19 19 20 18 16 16 14 13 15 15 16 19 22 22 20 21 21 21 20 20 19 18 18 17 16 15 14 13 12 13
22 21 22 18 17 16 16 15 15 15 15 15 15 15 15 14 13 13 14 15 14 14 15 15 14 19 20 21 19 20 20 21 19 19 19 18 17 16 16 14 13 12 11 12
19 19 20 18 17 15 14 14 14 14 13 13 14 13 12 10 11 10 10 12 11 11 13 14 16 19 19 21 21 20 19 19 19 18 18 16 16 14 13 12 12 11 11 10
16 17 16 15 14 13 12 13 13 12 11 9 8 8 8 7 3 1 3 6 7 7 10 14 19 19 19 20 20 19 18 16 16 16 16 14 13 12 11 9 8 8 8 7
13 13 13 12 11 11 8 6 4 5 2 2 2 6 7 5 2 -2 -2 2 5 9 13 15 16 17 18 18 18 18 17 15 15 14 12 12 10 9 9 8 7 5 5 5
8 8 8 7 1 -3 -4 -6 -1 -1 -4 -6 0 -5 -6 -5 -2 0 3 5 7 12 14 14 14 14 15 16 16 16 15 14 12 10 9 8 7 7 6 5 4 3 3 2
2 3 -2 -0 4 -1 -4 -4 -2 -6 -6 -7 -8 -8 -7 -3 -5 -2 -5 2 9 7 11 11 11 9 10 12 12 13 13 13 12 11 9 7 5 5 3 4 3 1 -0 -0
5 5 3 1 1 0 -2 -1 -6 -6 -6 -8 -6 -6 -1 1 1 -1 -1 8 8 7 9 7 4 5 5 7 7 7 7 6 7 7 6 4 3 2 1 0 -0 -2 -4 -2
5 5 2 2 2 8 5 0 2 1 -4 -3 -7 -7 2 -3 -3 9 9 3 -2 -3 -2 2 0 2 -1 1 2 2 3 4 3 2 4 1 -0 -0 -1 -2 -3 -3 -5 -4
6 2 3 3 6 4 4 3 5 5 6 8 7 10 9 8 -1 2 -2 -0 3 -1 -4 -5 -4 -5 -7 -7 -6 -4 -4 -4 -3 -2 -2 -3 -2 -2 -4 -3 -5 -6 -9 -11
6 9 7 9 10 9 9 11 7 10 12 5 4 -6 -5 -3 3 3 -1 -2 -0 -2 -7 -13 -14 -13 -12 -11 -13 -11 -9 -5 -7 -8 -11 -11 -6 -5 -6 -7 -11 -12 -13 -16
6 8 9 10 11 12 12 12 8 8 6 2 0 -4 -3 -6 -7 -2 -8 -11 -11 -10 -13 -14 -14 -11 -11 -13 -12 -13 -13 -13 -13 -13 -17 -15 -14 -14 -13 -14 -14 -17 -18 -16

GFSNGP_sfc_dewp_129.txt.gz
Dewpoint
25 25 31 31 27 28 26 29 24 25 24 28 29 29 30 30 30 30 29 29 29 29 29 29 29 29 30 31 31 31 31 30 31 32 32 32 34 34 35 37 38 40 42 44
23 28 32 28 28 25 27 27 30 29 26 33 32 28 26 27 28 28 28 28 28 28 28 28 28 29 29 30 30 30 29 29 30 30 30 32 32 33 34 35 36 38 40 42
20 25 32 24 27 29 28 28 28 24 30 32 27 25 26 25 25 25 26 26 27 26 27 28 28 29 29 29 30 29 29 28 28 28 29 30 30 31 32 34 35 36 38 41
22 26 19 29 28 33 30 30 31 30 30 32 28 28 26 26 24 23 23 24 25 26 27 27 28 28 29 28 28 27 27 27 27 27 28 29 29 30 32 33 34 36 37 39
23 22 28 27 26 26 26 26 29 30 29 29 34 32 25 26 25 23 23 24 24 25 26 27 27 28 28 27 27 26 26 26 26 26 26 27 27 29 31 32 33 34 36 37
23 20 17 25 25 28 33 23 30 29 30 28 26 23 24 27 24 22 21 22 22 23 24 25 27 28 27 27 28 26 26 26 26 26 26 26 27 28 30 31 32 33 33 35
20 21 24 26 27 29 24 24 30 30 31 30 25 27 29 27 23 21 20 21 21 22 23 25 27 28 27 27 27 29 27 26 26 26 26 25 26 27 28 29 29 30 31 32
20 19 16 27 25 22 28 32 30 30 30 30 30 28 26 23 21 20 20 21 21 21 22 24 25 27 26 26 28 28 27 26 26 27 27 25 26 27 27 28 27 27 28 29
23 24 30 30 29 30 30 28 28 27 28 29 25 24 23 22 20 20 21 21 21 21 21 22 24 26 24 26 27 27 26 25 25 26 27 27 27 25 26 26 27 26 26 25
26 29 28 28 29 28 29 27 27 27 26 25 23 22 20 19 19 19 21 21 21 21 21 21 23 24 25 26 26 25 25 25 26 25 26 26 27 27 25 25 25 25 26 24
27 29 28 28 28 28 29 28 27 25 24 23 21 20 19 18 18 18 19 20 21 20 20 21 22 23 23 24 24 24 24 24 24 24 25 25 25 26 26 25 25 25 25 26
24 30 28 28 30 29 29 27 26 24 22 21 20 19 18 17 17 17 17 17 18 19 19 19 20 20 21 23 23 23 23 22 22 23 23 23 23 23 23 24 24 23 24 25
29 31 30 29 28 29 29 26 24 23 22 21 20 19 17 17 17 17 16 17 17 19 19 19 20 21 22 23 23 22 23 23 22 22 22 21 21 20 20 22 20 20 22 23
32 30 28 28 25 27 26 25 23 21 21 21 19 19 17 16 15 15 15 16 17 17 18 19 19 20 22 24 24 23 23 21 23 23 22 21 21 20 19 18 18 19 20 20
27 27 26 25 24 24 23 21 18 17 17 17 18 17 16 14 14 13 13 13 13 14 15 16 17 19 21 22 22 22 21 21 22 22 20 19 19 18 18 17 15 15 16 15
24 22 21 20 19 18 17 17 15 15 15 14 14 15 13 12 11 10 10 12 13 13 14 15 16 19 21 21 21 21 21 19 18 19 18 17 16 16 15 15 14 13 12 13
23 20 19 17 17 16 15 14 13 13 13 13 12 11 10 10 9 9 10 11 13 14 15 15 16 19 20 21 21 20 20 18 16 15 15 14 14 14 13 14 13 12 12 11
22 22 20 18 16 15 14 13 12 12 12 13 11 10 8 8 8 8 8 9 10 12 13 14 16 17 18 19 19 18 16 15 14 14 12 13 12 11 12 11 10 11 11 10
19 18 17 16 15 14 12 12 11 11 11 10 8 6 5 3 4 5 7 8 9 10 11 13 15 15 16 17 17 16 16 16 13 12 11 10 11 10 10 11 10 10 9 9
16 15 14 14 14 13 10 9 9 6 4 6 3 4 5 2 2 4 6 8 9 10 12 12 13 14 13 14 15 15 15 15 12 12 11 11 11 10 9 7 8 9 9 8
12 10 9 8 5 5 5 3 6 7 1 2 7 4 4 2 3 5 7 7 10 10 11 10 10 10 10 10 11 15 15 14 14 12 11 11 10 9 9 8 8 8 8 7
9 8 6 6 8 5 3 5 6 3 3 2 -2 -1 4 7 5 7 4 7 10 7 8 7 7 4 6 9 10 12 11 11 12 12 11 11 10 9 8 8 7 8 7 7
9 8 8 7 8 9 5 6 3 6 5 3 4 6 9 9 10 8 6 7 8 8 8 7 3 2 4 10 11 11 10 9 9 9 9 9 9 9 8 7 7 7 7 6
9 9 8 8 8 9 9 8 8 8 6 5 5 3 10 10 11 10 10 5 2 6 8 7 4 1 3 9 8 8 8 8 8 8 8 5 8 7 6 6 5 5 5 5
10 9 7 8 9 9 10 10 10 10 10 11 11 9 8 8 11 12 12 10 5 7 9 1 1 1 7 8 7 7 7 7 6 7 7 6 6 5 6 5 3 2 3 3
10 10 10 11 12 11 11 11 12 12 12 12 12 12 12 10 11 12 11 5 8 4 9 8 6 7 8 7 6 5 6 5 5 5 4 4 5 4 3 2 2 2 2 2
11 10 11 11 12 13 14 14 14 14 14 15 14 12 10 10 10 9 5 10 10 9 9 9 8 5 6 7 7 6 6 6 0 3 4 4 4 4 2 2 2 2 1 1